When you browse on this site, cookies collect data to enhance your experience and personalize the content and advertising you see.
Visit our Privacy Policy to learn more. By continuing to use the site, you agree to this use of cookies and data.
  • In Italy
  • List of Countries
  • For 7 days
  • Water Temperature
  • Satellite Maps
  • Weather Map
  • Weather Widgets
  • user-avatar
    Login

    Hourly Weather Viedma

    Today, 16 January, Wednesday

    Time Temperature Precipitation Wind Pressure Humidity
    00:00 +28°C° 0 mm 6 mps 749 mmHg 29%
    01:00 +27°C° 0 mm 6 mps 749 mmHg 34%
    02:00 +26°C° 0 mm 7 mps 748 mmHg 39%
    03:00 +24°C° 0 mm 6 mps 749 mmHg 41%
    04:00 +23°C° 0 mm 6 mps 750 mmHg 42%
    05:00 +21°C° 0 mm 5 mps 750 mmHg 44%
    06:00 +22°C° 0 mm 6 mps 752 mmHg 41%
    07:00 +23°C° 0 mm 8 mps 753 mmHg 39%
    08:00 +23°C° 0 mm 9 mps 754 mmHg 36%
    09:00 +24°C° 0 mm 9 mps 754 mmHg 34%
    10:00 +24°C° 0 mm 9 mps 755 mmHg 31%
    11:00 +24°C° 0 mm 9 mps 756 mmHg 29%
    12:00 +24°C° 0 mm 8 mps 756 mmHg 27%
    13:00 +26°C° 0 mm 8 mps 756 mmHg 26%
    14:00 +26°C° 0 mm 8 mps 757 mmHg 24%
    15:00 +24°C° 0 mm 8 mps 758 mmHg 28%
    16:00 +23°C° 0 mm 8 mps 758 mmHg 32%
    17:00 +22°C° 0 mm 8 mps 759 mmHg 36%
    18:00 +21°C° 0 mm 8 mps 760 mmHg 45%
    19:00 +18°C° 0 mm 7 mps 761 mmHg 53%
    20:00 +17°C° 0 mm 7 mps 761 mmHg 62%
    21:00 +16°C° 0 mm 7 mps 762 mmHg 62%
    22:00 +16°C° 0 mm 6 mps 763 mmHg 62%
    23:00 +15°C° 0 mm 6 mps 764 mmHg 62%

    Tomorrow, 17 January, Thursday

    Time Temperature Precipitation Wind Pressure Humidity
    00:00 +15°C° 0 mm 6 mps 764 mmHg 61%
    01:00 +15°C° 0 mm 5 mps 764 mmHg 59%
    02:00 +14°C° 0 mm 4 mps 764 mmHg 58%
    03:00 +14°C° 0 mm 4 mps 765 mmHg 58%
    04:00 +14°C° 0 mm 3 mps 765 mmHg 58%
    05:00 +13°C° 0 mm 3 mps 765 mmHg 58%
    06:00 +15°C° 0 mm 4 mps 766 mmHg 52%
    07:00 +17°C° 0 mm 4 mps 766 mmHg 47%
    08:00 +17°C° 0 mm 5 mps 767 mmHg 41%
    09:00 +19°C° 0 mm 5 mps 767 mmHg 37%
    10:00 +20°C° 0 mm 4 mps 767 mmHg 34%
    11:00 +21°C° 0 mm 4 mps 767 mmHg 31%
    12:00 +22°C° 0 mm 5 mps 767 mmHg 30%
    13:00 +22°C° 0 mm 5 mps 767 mmHg 29%
    14:00 +23°C° 0 mm 6 mps 766 mmHg 27%
    15:00 +23°C° 0 mm 6 mps 766 mmHg 28%
    16:00 +22°C° 0 mm 5 mps 766 mmHg 29%
    17:00 +22°C° 0 mm 5 mps 765 mmHg 30%
    18:00 +20°C° 0 mm 5 mps 765 mmHg 35%
    19:00 +19°C° 0 mm 5 mps 765 mmHg 40%
    20:00 +17°C° 0 mm 5 mps 766 mmHg 45%
    21:00 +16°C° 0 mm 5 mps 766 mmHg 48%
    22:00 +16°C° 0 mm 5 mps 766 mmHg 51%
    23:00 +15°C° 0 mm 5 mps 766 mmHg 54%

    Day after tomorrow, 18 January, Friday

    Time Temperature Precipitation Wind Pressure Humidity
    00:00 +15°C° 0 mm 5 mps 765 mmHg 57%
    01:00 +14°C° 0 mm 4 mps 765 mmHg 59%
    02:00 +14°C° 0 mm 4 mps 764 mmHg 61%
    03:00 +14°C° 0 mm 4 mps 764 mmHg 64%
    04:00 +14°C° 0 mm 4 mps 764 mmHg 66%
    05:00 +13°C° 0 mm 5 mps 764 mmHg 68%
    06:00 +15°C° 0 mm 5 mps 764 mmHg 60%
    07:00 +17°C° 0 mm 5 mps 764 mmHg 53%
    08:00 +19°C° 0 mm 6 mps 764 mmHg 46%
    09:00 +22°C° 0 mm 5 mps 763 mmHg 38%
    10:00 +25°C° 0 mm 4 mps 763 mmHg 31%
    11:00 +28°C° 0 mm 4 mps 763 mmHg 23%
    12:00 +29°C° 0 mm 4 mps 762 mmHg 21%
    13:00 +30°C° 0 mm 3 mps 762 mmHg 19%
    14:00 +31°C° 0 mm 3 mps 761 mmHg 17%
    15:00 +32°C° 0 mm 4 mps 761 mmHg 18%
    16:00 +32°C° 0 mm 5 mps 760 mmHg 19%
    17:00 +30°C° 0 mm 6 mps 760 mmHg 20%
    18:00 +28°C° 0 mm 6 mps 760 mmHg 25%
    19:00 +24°C° 0 mm 7 mps 760 mmHg 31%
    20:00 +22°C° 0 mm 7 mps 760 mmHg 36%
    21:00 +21°C° 0 mm 7 mps 760 mmHg 39%
    22:00 +21°C° 0 mm 7 mps 760 mmHg 43%
    23:00 +20°C° 0 mm 7 mps 760 mmHg 46%

    19 January, Saturday

    Time Temperature Precipitation Wind Pressure Humidity
    00:00 +20°C° 0 mm 6 mps 760 mmHg 51%
    01:00 +19°C° 0 mm 6 mps 760 mmHg 55%
    02:00 +19°C° 0 mm 6 mps 759 mmHg 60%
    03:00 +19°C° 0 mm 5 mps 759 mmHg 58%
    04:00 +17°C° 0 mm 5 mps 759 mmHg 57%
    05:00 +18°C° 0 mm 4 mps 759 mmHg 55%
    06:00 +21°C° 0 mm 5 mps 759 mmHg 44%
    07:00 +23°C° 0 mm 6 mps 759 mmHg 34%
    08:00 +27°C° 0 mm 6 mps 760 mmHg 23%
    09:00 +29°C° 0 mm 6 mps 759 mmHg 20%
    10:00 +32°C° 0 mm 7 mps 759 mmHg 17%
    11:00 +34°C° 0 mm 7 mps 759 mmHg 13%
    12:00 +35°C° 0 mm 7 mps 758 mmHg 12%
    13:00 +36°C° 0 mm 7 mps 758 mmHg 11%
    14:00 +36°C° 0 mm 7 mps 757 mmHg 10%
    15:00 +36°C° 0 mm 7 mps 757 mmHg 10%
    16:00 +36°C° 0 mm 7 mps 756 mmHg 11%
    17:00 +36°C° 0 mm 7 mps 756 mmHg 11%
    18:00 +34°C° 0 mm 7 mps 756 mmHg 17%
    19:00 +32°C° 0 mm 7 mps 756 mmHg 23%
    20:00 +28°C° 0 mm 7 mps 756 mmHg 30%
    21:00 +28°C° 0 mm 7 mps 756 mmHg 35%
    22:00 +27°C° 0 mm 7 mps 756 mmHg 40%
    23:00 +26°C° 0 mm 7 mps 755 mmHg 45%

    20 January, Sunday

    Time Temperature Precipitation Wind Pressure Humidity
    00:00 +27°C° 0 mm 8 mps 755 mmHg 43%
    01:00 +27°C° 0 mm 8 mps 755 mmHg 41%
    02:00 +28°C° 0 mm 9 mps 754 mmHg 39%
    03:00 +27°C° 0 mm 9 mps 754 mmHg 42%
    04:00 +27°C° 0 mm 9 mps 754 mmHg 45%
    05:00 +27°C° 0 mm 8 mps 754 mmHg 49%
    06:00 +28°C° 0 mm 9 mps 754 mmHg 48%
    07:00 +28°C° 0 mm 9 mps 754 mmHg 48%
    08:00 +29°C° 0 mm 10 mps 754 mmHg 48%
    09:00 +32°C° 0 mm 9 mps 754 mmHg 42%
    10:00 +34°C° 0 mm 9 mps 754 mmHg 37%
    11:00 +37°C° 0 mm 9 mps 753 mmHg 31%
    12:00 +38°C° 0 mm 8 mps 753 mmHg 28%
    13:00 +39°C° 0 mm 8 mps 752 mmHg 24%
    14:00 +40°C° 0 mm 7 mps 751 mmHg 20%
    15:00 +40°C° 0 mm 7 mps 750 mmHg 21%
    16:00 +40°C° 0 mm 8 mps 750 mmHg 22%
    17:00 +40°C° 0 mm 8 mps 749 mmHg 23%
    18:00 +38°C° 0 mm 8 mps 749 mmHg 26%
    19:00 +37°C° 0 mm 8 mps 749 mmHg 29%
    20:00 +34°C° 0 mm 8 mps 749 mmHg 32%
    21:00 +34°C° 0 mm 9 mps 749 mmHg 34%
    22:00 +33°C° 0 mm 9 mps 749 mmHg 37%
    23:00 +33°C° 0 mm 10 mps 749 mmHg 39%

    21 January, Monday

    Time Temperature Precipitation Wind Pressure Humidity
    00:00 +32°C° 0.2 mm 11 mps 748 mmHg 41%
    01:00 +32°C° 0.2 mm 11 mps 748 mmHg 43%
    02:00 +31°C° 0.2 mm 12 mps 748 mmHg 45%
    03:00 +31°C° 0 mm 11 mps 748 mmHg 46%
    04:00 +29°C° 0 mm 10 mps 748 mmHg 47%
    05:00 +29°C° 0 mm 9 mps 749 mmHg 49%
    06:00 +28°C° 0 mm 9 mps 749 mmHg 47%
    07:00 +27°C° 0 mm 10 mps 750 mmHg 45%
    08:00 +27°C° 0 mm 11 mps 750 mmHg 43%
    09:00 +27°C° 0 mm 10 mps 751 mmHg 39%
    10:00 +28°C° 0 mm 9 mps 751 mmHg 35%
    11:00 +29°C° 0 mm 8 mps 751 mmHg 31%
    12:00 +29°C° 0 mm 8 mps 751 mmHg 31%
    13:00 +29°C° 0 mm 7 mps 752 mmHg 30%
    14:00 +29°C° 0 mm 7 mps 752 mmHg 30%
    15:00 +28°C° 0 mm 6 mps 752 mmHg 31%
    16:00 +27°C° 0 mm 6 mps 752 mmHg 33%
    17:00 +27°C° 0 mm 6 mps 752 mmHg 34%
    18:00 +24°C° 0 mm 6 mps 752 mmHg 38%
    19:00 +23°C° 0 mm 5 mps 752 mmHg 42%
    20:00 +21°C° 0 mm 4 mps 752 mmHg 46%
    21:00 +21°C° 0 mm 5 mps 752 mmHg 48%
    22:00 +20°C° 0 mm 5 mps 752 mmHg 50%
    23:00 +20°C° 0 mm 5 mps 752 mmHg 52%
    Show more